Вернуться в каталог

FENGYUN 1C DEB

АктивенSSO
NORAD 30212·DEBRIS·🇨🇳 China

Запущен May 10, 1999 с Taiyuan Satellite Launch Center

Loading…

Ближайшие Пролёты (ближайшие 24 часа)

TLE

СвежийSource: Space-Track

Эпоха: Sep 14, 2026, 03:28 UTC

1 30212U 99025VV  26257.14503153  .00000216  00000-0  18023-3 0  9993
2 30212  99.4215 134.9912 0096403 209.8809 149.6828 13.97304481   713

Отслеживайте FENGYUN 1C DEB в реальном времени с AllMySat

Download on the App Store